Location: Newark
(44.3290°N, 23.7757°E)
Time: 06:45:06
(UTC+00:00)

Envisat - Visible Passes

Search period start: 27 January 2022 00:00
Search period end: 06 February 2022 00:00
Orbit: 764 x 766 km, 98.2° (Epoch: 26 January)

Date Brightness Start Highest point End Pass type
(mag) Time Alt. Az. Time Alt. Az. Time Alt. Az.
27 Jan 5.6 02:05:46 10° NE 02:08:57 16° E 02:12:07 10° SE visible
27 Jan 2.9 03:43:23 10° N 03:48:24 64° WNW 03:53:25 10° SSW visible
28 Jan 3.4 03:06:30 10° NNE 03:11:33 60° E 03:16:33 10° S visible
28 Jan 4.3 04:46:34 10° NNW 04:50:05 19° WNW 04:53:36 10° WSW visible
28 Jan 6.4 16:05:53 10° WSW 16:07:16 11° W 16:08:38 10° WNW visible
29 Jan 4.8 02:30:08 10° NE 02:34:29 28° E 02:38:48 10° SSE visible
29 Jan 3.4 04:08:53 10° N 04:13:34 38° WNW 04:18:13 10° SW visible
30 Jan 5.9 01:54:57 10° ENE 01:57:13 13° E 01:59:28 10° ESE visible
30 Jan 2.8 03:31:44 10° N 03:36:50 80° WNW 03:41:54 10° SSW visible
30 Jan 4.7 05:13:12 10° NW 05:15:01 12° WNW 05:16:49 10° WNW visible
31 Jan 3.9 02:55:00 10° NNE 02:59:55 47° E 03:04:48 10° S visible
31 Jan 4.0 04:34:39 10° NNW 04:38:37 24° WNW 04:42:36 10° WSW visible
01 Feb 5.2 02:18:51 10° NE 02:22:48 22° E 02:26:42 10° SE visible
01 Feb 3.2 03:57:10 10° N 04:02:02 47° WNW 04:06:53 10° SW visible
02 Feb 3.0 03:20:08 10° NNE 03:25:15 81° ESE 03:30:20 10° SSW visible
02 Feb 4.5 05:00:50 10° NNW 05:03:35 15° WNW 05:06:20 10° W visible
03 Feb 4.3 02:43:32 10° NNE 02:48:16 37° E 02:52:57 10° SSE visible
03 Feb 3.8 04:22:48 10° N 04:27:08 29° WNW 04:31:27 10° SW visible
04 Feb 5.5 02:07:41 10° NE 02:11:04 18° E 02:14:26 10° SE visible
04 Feb 2.9 03:45:28 10° N 03:50:29 60° WNW 03:55:28 10° SSW visible
05 Feb 3.3 03:08:34 10° NNE 03:13:38 65° ESE 03:18:40 10° S visible
05 Feb 4.3 04:48:46 10° NNW 04:52:08 18° WNW 04:55:30 10° WSW visible
